Simultaneous Nadir Overpasses (SNOs) Predictions

Prediction of SNOs between METOP-B and NOAA-19 Satellite Orbit:

Table of predicted SNOs for the next 14.0 days since TLE Epoch: 8/11/2016
Index Date (METOP-B) Time (METOP-B) Lat,Lon (METOP-B) SZA (METOP-B ) Date (NOAA-19) Time (NOAA-19) Lat,Lon (NOAA-19) SZA (NOAA-19 ) Distance(km) Time Diff (sec)
1 08/18/2016 10:58:57 76.54, 17.62 63.60 08/18/2016 10:57:47 76.53, 15.70 63.58 49.69 70
2 08/18/2016 11:49:45 -76.28,-176.03 116.67 08/18/2016 11:48:45 -76.28,-176.12 116.66 2.48 60
3 08/18/2016 12:40:25 76.25, -8.77 63.33 08/18/2016 12:39:43 76.26, -8.79 63.34 1.37 42
4 08/18/2016 13:31:07 -76.26, 158.57 116.66 08/18/2016 13:30:46 -76.24, 158.54 116.68 2.37 21
5 08/18/2016 14:21:47 76.24, -34.17 63.33 08/18/2016 14:21:44 76.22, -34.14 63.32 1.91 3
6 08/18/2016 15:12:29 -76.24, 133.17 116.65 08/18/2016 15:12:48 -76.24, 133.03 116.66 3.85 19
7 08/18/2016 16:03:09 76.22, -59.57 63.34 08/18/2016 16:03:46 76.22, -59.65 63.34 2.07 37
8 08/18/2016 16:53:52 -76.18, 107.62 116.69 08/18/2016 16:54:49 -76.20, 107.69 116.68 2.50 57
9 08/18/2016 17:44:33 76.11, -85.29 63.25 08/18/2016 17:45:46 76.14, -84.83 63.28 12.52 73




NCC Satellite Simultaneous Nadir Overpasses (SNOs) Prediction Service
